The following orbital elements are taken from MPC 70361:
Epoch 2010 May 4.0 TT = JDT 2455320.5
T 2010 Apr. 19.3160 TT MPC
q 1.712051 (2000.0) P Q
n 0.0855740 Peri. 306.7066 -0.7073966 +0.6997330
a 5.100056 Node 277.9412 -0.6121000 -0.6770815
e 0.664307 Incl. 5.7844 -0.3534454 -0.2278913
P 11.5
From 468 observations 2010 Jan. 14-May 22.